RBG927 HEGN-FACT

Flight info

Callsign RBG927
Flight time N/A
Altitude 29000
Route BOTIX1B BOTIX V608 NABED A727 SML/N0475F310 W605 ALKED P557 NUBAR M568 KASAB/N0475F320 M568 DEKUM UB12 EDILO/N0472F340 UB12 GOM/N0471F330 UB607 BJA/N0470F340 UB527 KMI UA409 VLS UT916 XOSIV/N0466F360 UT916 UPV/N0421F240 Q23 CSV UZ26 ERDAS ERDAS1A
Aircraft A21N/M-SDE3FGHIRWY/LB1

Departure

Time 2026-04-30 20:34
Airport Hurghada International Airport (HEGN)

Arrival

Time N/A
Airport Cape Town International Airport (FACT)
Time Latitude Longitude Altitude Speed Heading
2026-04-30 19:49 27.17853 33.80649 60 ft 0 kts 75°
2026-04-30 20:21 27.17853 33.80648 60 ft 0 kts 75°
2026-04-30 20:21 27.17849 33.80633 60 ft 2 kts 75°
2026-04-30 20:22 27.17845 33.80616 60 ft 2 kts 75°
2026-04-30 20:22 27.17841 33.80600 60 ft 2 kts 75°
2026-04-30 20:22 27.17837 33.80583 60 ft 2 kts 75°
2026-04-30 20:22 27.17834 33.80565 60 ft 2 kts 94°
2026-04-30 20:23 27.17837 33.80547 60 ft 2 kts 113°
2026-04-30 20:23 27.17846 33.80532 60 ft 2 kts 134°
2026-04-30 20:23 27.17859 33.80521 60 ft 2 kts 154°
2026-04-30 20:23 27.17873 33.80515 60 ft 2 kts 169°
2026-04-30 20:24 27.17888 33.80512 60 ft 2 kts 163°
2026-04-30 20:24 27.17902 33.80507 60 ft 1 kts 166°
2026-04-30 20:24 27.17903 33.80506 60 ft 0 kts 166°
2026-04-30 20:26 27.17901 33.80507 60 ft 1 kts 166°
2026-04-30 20:26 27.17882 33.80511 60 ft 3 kts 183°
2026-04-30 20:27 27.17837 33.80431 60 ft 8 kts 255°
2026-04-30 20:27 27.17789 33.80302 60 ft 9 kts 205°
2026-04-30 20:28 27.17622 33.80341 61 ft 14 kts 165°
2026-04-30 20:28 27.17403 33.80404 61 ft 17 kts 165°
2026-04-30 20:29 27.17149 33.80478 61 ft 19 kts 166°
2026-04-30 20:30 27.16727 33.80603 61 ft 21 kts 165°
2026-04-30 20:30 27.16272 33.80736 61 ft 21 kts 165°
2026-04-30 20:31 27.16130 33.80671 61 ft 8 kts 254°
2026-04-30 20:32 27.16145 33.80600 62 ft 6 kts 339°
2026-04-30 20:32 27.16200 33.80586 61 ft 0 kts 346°
2026-04-30 20:33 27.16396 33.80528 61 ft 63 kts 345°
2026-04-30 20:33 27.17034 33.80338 61 ft 123 kts 346°
2026-04-30 20:34 27.19381 33.79673 462 ft 187 kts 345°
2026-04-30 20:34 27.21919 33.78961 1903 ft 182 kts 342°
2026-04-30 20:35 27.23201 33.78502 2396 ft 186 kts 340°
2026-04-30 20:35 27.24516 33.78005 2650 ft 205 kts 341°
2026-04-30 20:35 27.27581 33.76901 3470 ft 230 kts 343°
2026-04-30 20:36 27.29190 33.76362 3977 ft 237 kts 343°
2026-04-30 20:36 27.30869 33.75787 4482 ft 245 kts 337°
2026-04-30 20:36 27.33045 33.72522 5416 ft 271 kts 281°
2026-04-30 20:37 27.32935 33.70313 5936 ft 282 kts 253°
2026-04-30 20:37 27.32225 33.68162 6416 ft 290 kts 253°
2026-04-30 20:37 27.31552 33.65899 6944 ft 295 kts 255°
2026-04-30 20:37 27.30902 33.63675 7746 ft 288 kts 254°
2026-04-30 20:38 27.30249 33.61511 8608 ft 278 kts 253°
2026-04-30 20:38 27.29582 33.59421 9311 ft 274 kts 253°
2026-04-30 20:38 27.28930 33.57351 9870 ft 275 kts 254°
2026-04-30 20:39 27.27648 33.53135 10652 ft 289 kts 254°
2026-04-30 20:39 27.26822 33.50956 10867 ft 306 kts 237°
2026-04-30 20:39 27.25115 33.49305 11094 ft 326 kts 210°
2026-04-30 20:40 27.20573 33.47293 11595 ft 353 kts 204°
2026-04-30 20:40 27.18142 33.46245 11834 ft 365 kts 205°
2026-04-30 20:40 27.15669 33.45121 12058 ft 377 kts 206°
2026-04-30 20:41 27.10454 33.42647 12489 ft 400 kts 207°
2026-04-30 20:41 27.07741 33.41332 12694 ft 411 kts 207°
2026-04-30 20:41 27.05006 33.39999 13003 ft 417 kts 207°
2026-04-30 20:41 27.02251 33.38654 13482 ft 419 kts 207°
2026-04-30 20:42 26.99514 33.37318 13942 ft 421 kts 207°
2026-04-30 20:42 26.96698 33.35941 14356 ft 424 kts 207°
2026-04-30 20:42 26.91017 33.33160 15209 ft 428 kts 207°
2026-04-30 20:43 26.88191 33.31775 15590 ft 431 kts 207°
2026-04-30 20:43 26.85346 33.30383 16010 ft 433 kts 208°
2026-04-30 20:43 26.82516 33.28998 16391 ft 435 kts 208°
2026-04-30 20:44 26.76693 33.26151 17151 ft 440 kts 208°
2026-04-30 20:44 26.73753 33.24716 17521 ft 442 kts 208°
2026-04-30 20:44 26.67835 33.21822 18245 ft 446 kts 208°
2026-04-30 20:45 26.61967 33.18961 18998 ft 448 kts 208°
2026-04-30 20:45 26.58955 33.17496 19370 ft 449 kts 208°
2026-04-30 20:45 26.56041 33.16077 19710 ft 450 kts 208°
2026-04-30 20:46 26.46998 33.11679 20649 ft 456 kts 209°
2026-04-30 20:46 26.43951 33.10198 20974 ft 458 kts 209°
2026-04-30 20:47 26.37855 33.07238 21579 ft 461 kts 208°
2026-04-30 20:47 26.34837 33.05776 21881 ft 462 kts 208°
2026-04-30 20:48 26.28648 33.02778 22499 ft 464 kts 209°
2026-04-30 20:48 26.25570 33.01290 22903 ft 462 kts 209°
2026-04-30 20:48 26.22485 32.99797 23284 ft 461 kts 209°
2026-04-30 20:48 26.19421 32.98317 23699 ft 460 kts 209°
2026-04-30 20:49 26.16353 32.96834 24115 ft 458 kts 210°
2026-04-30 20:49 26.13330 32.95374 24491 ft 457 kts 210°
2026-04-30 20:49 26.10296 32.93909 24880 ft 455 kts 210°
2026-04-30 20:50 26.04178 32.90955 25585 ft 453 kts 210°
2026-04-30 20:50 26.01210 32.89523 25852 ft 453 kts 210°
2026-04-30 20:50 25.98204 32.88073 26180 ft 452 kts 209°
2026-04-30 20:50 25.95276 32.86663 26493 ft 451 kts 210°
2026-04-30 20:51 25.92322 32.85241 26759 ft 451 kts 209°
2026-04-30 20:51 25.86261 32.82323 27404 ft 448 kts 210°
2026-04-30 20:51 25.83249 32.80875 27683 ft 447 kts 210°
2026-04-30 20:52 25.80316 32.79464 27940 ft 446 kts 210°
2026-04-30 20:52 25.77359 32.78048 28237 ft 445 kts 210°
2026-04-30 20:52 25.71290 32.75620 28774 ft 448 kts 204°
2026-04-30 20:53 25.68235 32.74558 29039 ft 446 kts 204°
2026-04-30 20:53 25.65183 32.73504 29280 ft 446 kts 204°
2026-04-30 20:53 25.63146 32.72799 29435 ft 445 kts 204°
2026-04-30 20:54 25.56070 32.70350 29905 ft 445 kts 204°
2026-04-30 20:54 25.52975 32.69278 30081 ft 445 kts 204°
2026-04-30 20:54 25.49884 32.68208 30306 ft 444 kts 203°
2026-04-30 20:55 25.43765 32.66093 30756 ft 441 kts 203°
2026-04-30 20:55 25.40706 32.65035 30930 ft 441 kts 203°
2026-04-30 20:55 25.38694 32.64339 31061 ft 441 kts 203°
2026-04-30 20:56 25.31511 32.61861 31478 ft 439 kts 203°
2026-04-30 20:56 25.28497 32.60822 31609 ft 439 kts 203°
2026-04-30 20:56 25.22462 32.58740 31858 ft 440 kts 203°
2026-04-30 20:57 25.19442 32.57700 31988 ft 440 kts 203°
2026-04-30 20:57 25.16407 32.56655 32100 ft 440 kts 202°
2026-04-30 20:57 25.13368 32.55609 32240 ft 439 kts 203°
2026-04-30 20:58 25.07359 32.53545 32448 ft 440 kts 203°
2026-04-30 20:58 25.04315 32.52500 32587 ft 439 kts 202°
2026-04-30 20:58 25.01307 32.51466 32692 ft 439 kts 203°
2026-04-30 20:58 24.98233 32.50412 32774 ft 439 kts 203°
2026-04-30 20:59 24.92189 32.48338 32944 ft 439 kts 202°
2026-04-30 20:59 24.89132 32.47291 32970 ft 439 kts 203°
2026-04-30 21:00 24.77065 32.43155 32990 ft 439 kts 203°
2026-04-30 21:01 24.68045 32.40067 32990 ft 438 kts 203°
2026-04-30 21:02 24.59026 32.36901 32994 ft 439 kts 203°
2026-04-30 21:02 24.53046 32.34797 33005 ft 439 kts 203°
2026-04-30 21:03 24.47061 32.32692 33003 ft 438 kts 203°
2026-04-30 21:03 24.40989 32.30558 33007 ft 439 kts 203°
2026-04-30 21:04 24.34946 32.28440 33023 ft 438 kts 203°
2026-04-30 21:04 24.25971 32.25295 33015 ft 436 kts 203°
2026-04-30 21:05 24.19959 32.23193 33017 ft 436 kts 203°
2026-04-30 21:05 24.14006 32.21112 33026 ft 437 kts 203°
2026-04-30 21:06 24.08057 32.19033 33022 ft 437 kts 203°
2026-04-30 21:06 24.02036 32.16933 33017 ft 437 kts 203°
2026-04-30 21:07 23.96048 32.14846 33019 ft 437 kts 203°
2026-04-30 21:07 23.90033 32.12751 33019 ft 437 kts 203°
2026-04-30 21:08 23.84015 32.10657 33011 ft 437 kts 203°
2026-04-30 21:08 23.78068 32.08588 33025 ft 439 kts 203°
2026-04-30 21:09 23.73045 32.06843 33030 ft 439 kts 203°
2026-04-30 21:09 23.65986 32.04396 33012 ft 437 kts 203°
2026-04-30 21:10 23.59993 32.02319 33023 ft 437 kts 204°
2026-04-30 21:10 23.53947 32.00224 33021 ft 437 kts 204°
2026-04-30 21:11 23.48967 31.98499 33019 ft 437 kts 204°
2026-04-30 21:11 23.42946 31.96415 32998 ft 436 kts 204°
2026-04-30 21:12 23.35918 31.93985 33005 ft 436 kts 204°
2026-04-30 21:12 23.30818 31.92380 32987 ft 440 kts 200°
2026-04-30 21:13 23.23582 31.90729 32976 ft 442 kts 198°
2026-04-30 21:13 23.17362 31.89352 32976 ft 441 kts 198°
2026-04-30 21:14 23.12111 31.88188 32965 ft 440 kts 198°
2026-04-30 21:14 23.04892 31.86587 32972 ft 439 kts 198°
2026-04-30 21:15 22.98735 31.85224 32977 ft 439 kts 198°
2026-04-30 21:15 22.92574 31.83860 32968 ft 438 kts 198°
2026-04-30 21:16 22.86394 31.82494 32965 ft 439 kts 198°
2026-04-30 21:16 22.81179 31.81343 32972 ft 439 kts 198°
2026-04-30 21:17 22.73942 31.79744 32967 ft 441 kts 198°
2026-04-30 21:17 22.68780 31.78605 32964 ft 441 kts 198°
2026-04-30 21:18 22.62608 31.77245 32974 ft 439 kts 198°
2026-04-30 21:18 22.55268 31.75629 32964 ft 440 kts 198°
2026-04-30 21:19 22.49116 31.74277 32959 ft 439 kts 198°
2026-04-30 21:19 22.42891 31.72908 32952 ft 439 kts 198°
2026-04-30 21:20 22.36696 31.71547 32945 ft 441 kts 198°
2026-04-30 21:20 22.30498 31.70188 32950 ft 441 kts 198°
2026-04-30 21:21 22.25270 31.69042 32961 ft 441 kts 198°
2026-04-30 21:22 22.15852 31.66978 32965 ft 441 kts 198°
2026-04-30 21:23 22.03422 31.64256 32985 ft 441 kts 198°
2026-04-30 21:23 21.93990 31.62829 32996 ft 446 kts 193°
2026-04-30 21:24 21.87589 31.62108 33003 ft 446 kts 193°
2026-04-30 21:24 21.80114 31.61263 33000 ft 446 kts 193°
2026-04-30 21:25 21.71601 31.60300 32989 ft 445 kts 193°
2026-04-30 21:26 21.61959 31.59208 32978 ft 445 kts 193°
2026-04-30 21:27 21.51368 31.58008 32980 ft 446 kts 193°
2026-04-30 21:27 21.46047 31.57408 32977 ft 447 kts 193°
2026-04-30 21:28 21.36432 31.56324 32988 ft 447 kts 193°
2026-04-30 21:29 21.26857 31.55244 32993 ft 446 kts 193°
2026-04-30 21:30 21.10850 31.53442 32991 ft 446 kts 193°
2026-04-30 21:31 20.93776 31.51524 33006 ft 447 kts 193°
2026-04-30 21:32 20.85219 31.50564 33011 ft 446 kts 193°
2026-04-30 21:32 20.77797 31.49733 33017 ft 445 kts 192°
2026-04-30 21:33 20.68116 31.48653 33019 ft 446 kts 193°
2026-04-30 21:34 20.62815 31.48062 33015 ft 446 kts 193°
2026-04-30 21:34 20.53141 31.46982 33004 ft 447 kts 193°
2026-04-30 21:35 20.45647 31.46146 32992 ft 447 kts 192°
2026-04-30 21:35 20.40336 31.45555 32984 ft 446 kts 192°
2026-04-30 21:36 20.34013 31.44851 32979 ft 446 kts 192°
2026-04-30 21:37 20.21134 31.43418 32974 ft 447 kts 192°
2026-04-30 21:37 20.13700 31.42593 32972 ft 447 kts 192°
2026-04-30 21:38 20.07343 31.41888 32979 ft 447 kts 192°
2026-04-30 21:38 20.02049 31.41301 32979 ft 447 kts 192°
2026-04-30 21:39 19.95628 31.40589 32979 ft 447 kts 192°
2026-04-30 21:39 19.88072 31.39752 32989 ft 448 kts 192°
2026-04-30 21:40 19.81679 31.39045 32987 ft 448 kts 192°
2026-04-30 21:40 19.76332 31.38454 32984 ft 448 kts 192°
2026-04-30 21:41 19.69890 31.37743 32981 ft 448 kts 192°
2026-04-30 21:41 19.63477 31.37036 32979 ft 448 kts 192°
2026-04-30 21:42 19.56975 31.36319 32979 ft 448 kts 192°
2026-04-30 21:42 19.50588 31.35615 32976 ft 448 kts 192°
2026-04-30 21:43 19.44109 31.34901 32979 ft 449 kts 191°
2026-04-30 21:43 19.37645 31.34190 32975 ft 450 kts 191°
2026-04-30 21:44 19.31166 31.33478 32974 ft 450 kts 191°
2026-04-30 21:44 19.24692 31.32766 32973 ft 450 kts 191°
2026-04-30 21:45 19.18288 31.32062 32959 ft 450 kts 191°
2026-04-30 21:45 19.11800 31.31351 32950 ft 450 kts 191°
2026-04-30 21:46 19.05390 31.30648 32944 ft 450 kts 191°
2026-04-30 21:46 18.98931 31.29939 32941 ft 451 kts 191°
2026-04-30 21:47 18.92520 31.29234 32946 ft 451 kts 191°
2026-04-30 21:47 18.86083 31.28529 32950 ft 451 kts 191°
2026-04-30 21:48 18.79621 31.27829 32956 ft 452 kts 191°
2026-04-30 21:48 18.73127 31.27124 32961 ft 452 kts 191°
2026-04-30 21:49 18.66617 31.26416 32959 ft 452 kts 191°
2026-04-30 21:49 18.60157 31.25713 32959 ft 452 kts 191°
2026-04-30 21:50 18.53652 31.25005 32961 ft 453 kts 190°
2026-04-30 21:50 18.47176 31.24300 32957 ft 455 kts 190°
2026-04-30 21:51 18.40660 31.23592 32956 ft 455 kts 190°
2026-04-30 21:51 18.34178 31.22887 32956 ft 455 kts 190°
2026-04-30 21:52 18.27685 31.22182 32952 ft 455 kts 190°
2026-04-30 21:52 18.21172 31.21477 32951 ft 455 kts 190°
2026-04-30 21:53 18.14639 31.20769 32944 ft 455 kts 190°
2026-04-30 21:53 18.08122 31.20061 32940 ft 456 kts 190°
2026-04-30 21:54 18.01587 31.19353 32934 ft 457 kts 190°
2026-04-30 21:54 17.94924 31.18631 32930 ft 458 kts 190°
2026-04-30 21:55 17.88412 31.17927 32932 ft 457 kts 190°
2026-04-30 21:55 17.81858 31.17219 32935 ft 458 kts 189°
2026-04-30 21:56 17.75361 31.16519 32940 ft 458 kts 189°
2026-04-30 21:56 17.68831 31.15815 32944 ft 459 kts 189°
2026-04-30 21:57 17.62303 31.15111 32949 ft 459 kts 189°
2026-04-30 21:57 17.55704 31.14401 32954 ft 460 kts 189°
2026-04-30 21:58 17.49101 31.13690 32962 ft 459 kts 189°
2026-04-30 21:58 17.42520 31.12983 32961 ft 459 kts 189°
2026-04-30 21:59 17.35871 31.12267 32967 ft 459 kts 189°
2026-04-30 22:00 17.26046 31.11212 32970 ft 459 kts 189°
2026-04-30 22:00 17.16167 31.10152 32977 ft 461 kts 189°
2026-04-30 22:01 17.09516 31.09440 32984 ft 461 kts 189°
2026-04-30 22:01 17.02889 31.08731 32987 ft 460 kts 189°
2026-04-30 22:02 16.96262 31.08021 32994 ft 460 kts 189°
2026-04-30 22:02 16.89645 31.07314 32998 ft 460 kts 189°
2026-04-30 22:03 16.82962 31.06599 33002 ft 461 kts 188°
2026-04-30 22:03 16.76283 31.05886 33005 ft 462 kts 188°
2026-04-30 22:04 16.69707 31.05185 33007 ft 462 kts 188°
2026-04-30 22:05 16.59783 31.04127 33012 ft 461 kts 188°
2026-04-30 22:05 16.53112 31.03416 33018 ft 462 kts 188°
2026-04-30 22:06 16.46519 31.02713 33019 ft 462 kts 188°
2026-04-30 22:06 16.36485 31.01646 33018 ft 463 kts 188°
2026-04-30 22:07 16.29939 31.00951 33020 ft 463 kts 188°
2026-04-30 22:07 16.23283 31.00245 33022 ft 463 kts 188°
2026-04-30 22:08 16.16681 30.99543 33020 ft 463 kts 188°
2026-04-30 22:08 16.10089 30.98844 33017 ft 463 kts 188°
2026-04-30 22:09 16.03429 30.98136 33009 ft 463 kts 188°
2026-04-30 22:09 15.96830 30.97438 32995 ft 463 kts 188°
2026-04-30 22:10 15.90234 30.96740 32988 ft 463 kts 187°
2026-04-30 22:10 15.83565 30.96036 32987 ft 463 kts 188°
2026-04-30 22:11 15.73598 30.94983 32984 ft 463 kts 188°
2026-04-30 22:12 15.66984 30.94284 32982 ft 463 kts 188°
2026-04-30 22:12 15.60316 30.93579 32987 ft 463 kts 187°
2026-04-30 22:13 15.53745 30.92884 32981 ft 463 kts 187°
2026-04-30 22:13 15.47065 30.92179 32984 ft 464 kts 187°
2026-04-30 22:14 15.40509 30.91489 32988 ft 465 kts 187°
2026-04-30 22:14 15.33879 30.90790 32990 ft 465 kts 187°
2026-04-30 22:15 15.27246 30.90091 32989 ft 464 kts 187°
2026-04-30 22:15 15.20581 30.89387 32984 ft 463 kts 187°
2026-04-30 22:16 15.13919 30.88684 32974 ft 464 kts 187°
2026-04-30 22:17 15.00666 30.87029 32963 ft 465 kts 188°
2026-04-30 22:17 14.90728 30.85766 32962 ft 464 kts 188°
2026-04-30 22:18 14.80820 30.84512 32961 ft 462 kts 188°
2026-04-30 22:19 14.70874 30.83254 32957 ft 462 kts 188°
2026-04-30 22:20 14.60978 30.82004 32958 ft 462 kts 188°
2026-04-30 22:20 14.51111 30.80760 32951 ft 462 kts 188°
2026-04-30 22:21 14.44507 30.79926 32955 ft 461 kts 188°
2026-04-30 22:21 14.37931 30.79099 32954 ft 460 kts 188°
2026-04-30 22:22 14.31365 30.78271 32954 ft 460 kts 188°
2026-04-30 22:22 14.24810 30.77445 32954 ft 460 kts 188°
2026-04-30 22:23 14.18333 30.76631 32959 ft 459 kts 188°
2026-04-30 22:23 14.11788 30.75808 32957 ft 458 kts 188°
2026-04-30 22:24 14.05221 30.74982 32958 ft 458 kts 188°
2026-04-30 22:24 13.98676 30.74158 32958 ft 458 kts 188°
2026-04-30 22:25 13.92153 30.73339 32956 ft 458 kts 188°
2026-04-30 22:25 13.85593 30.72515 32946 ft 458 kts 188°
2026-04-30 22:26 13.75785 30.71281 32932 ft 458 kts 188°
2026-04-30 22:27 13.69279 30.70470 32934 ft 457 kts 188°
2026-04-30 22:27 13.59472 30.69253 32946 ft 456 kts 188°
2026-04-30 22:28 13.49652 30.68029 32963 ft 456 kts 188°
2026-04-30 22:29 13.36571 30.66396 32967 ft 456 kts 188°
2026-04-30 22:31 13.13782 30.63555 32977 ft 456 kts 188°
2026-04-30 22:32 12.97421 30.61520 32960 ft 456 kts 188°
2026-04-30 22:33 12.81100 30.59491 32955 ft 456 kts 188°
2026-04-30 22:35 12.64715 30.57457 32959 ft 458 kts 188°
2026-04-30 22:36 12.48395 30.55434 32973 ft 459 kts 188°
2026-04-30 22:37 12.35312 30.53814 32974 ft 459 kts 188°
2026-04-30 22:38 12.22159 30.52187 32981 ft 460 kts 188°
2026-04-30 22:39 12.12301 30.50969 32985 ft 461 kts 188°
2026-04-30 22:40 11.92451 30.48518 33001 ft 462 kts 188°
2026-04-30 22:41 11.75920 30.46481 33008 ft 462 kts 188°
2026-04-30 22:43 11.56022 30.44030 33002 ft 463 kts 188°
2026-04-30 22:44 11.42770 30.42401 33005 ft 463 kts 188°
2026-04-30 22:45 11.22992 30.39971 33059 ft 463 kts 188°
2026-04-30 22:47 11.02958 30.37514 32988 ft 463 kts 188°
2026-04-30 22:48 10.89673 30.35886 32954 ft 464 kts 188°
2026-04-30 22:49 10.69680 30.33439 32933 ft 464 kts 187°
2026-04-30 22:51 10.49703 30.30998 32926 ft 464 kts 187°
2026-04-30 22:52 10.39768 30.29785 32924 ft 464 kts 187°
2026-04-30 22:53 10.26441 30.28159 32919 ft 464 kts 187°
2026-04-30 22:53 10.16529 30.26948 32910 ft 464 kts 187°
2026-04-30 22:55 9.99928 30.24925 32899 ft 462 kts 187°
2026-04-30 22:56 9.86617 30.23305 32892 ft 463 kts 187°
2026-04-30 22:57 9.69948 30.21273 32891 ft 464 kts 187°
2026-04-30 22:58 9.56712 30.19661 32890 ft 463 kts 187°
2026-04-30 22:59 9.36902 30.17500 32896 ft 463 kts 186°